Find Local Weather

World > North America > United States > Washington

Blaine, Washington Regional Weather

Lat: 48.99N, Lon: 122.76W
Wx Zone: WAZ503
Feedback
Expires:201809230300;;062900
ASUS46 KSEW 230210
RWRWA 

WASHINGTON REGIONAL WEATHER ROUNDUP
NATIONAL WEATHER SERVICE SEATTLE WA
700 PM PDT SAT SEP 22 2018

NOTE:"FAIR" INDICATES FEW OR NO CLOUDS BELOW 12,000 FEET WITH NO 
SIGNIFICANT WEATHER AND/OR OBSTRUCTIONS TO VISIBILITY.


WAZ001-503-506-510-514-515-230300-
NORTH INTERIOR
  
CITY           SKY/WX    TMP DP  RH WIND       PRES   REMARKS
BELLINGHAM     CLOUDY    59  54  83 S6        29.94R                  
FRIDAY HARBOR  MOCLDY    59  44  57 SW9G21    29.96R                  
EASTSOUND      CLOUDY    57  54  88 VRB3      29.94R                  
PORT ANGELES   CLEAR     55  48  77 W10       29.97R                  
EDIZ HOOK      FAIR      54  48  82 NW21      29.96R                  
PORT TOWNSEND  CLOUDY    57  50  77 W13       29.95R                  
NAS WHIDBEY    MOCLDY    59  48  67 NW25G36   29.98R                  
ARLINGTON      LGT RAIN  56  51  84 N7        29.99R                  
BURLINGTON     CLOUDY    59  46  63 VRB7G15   29.96R                  
$$
 

SKY/WX - Weather  TMP - Temperature  DP - Dew Point  RH - Relative Humidity
WIND - Wind Direction/Speed PRES - Barometric Pressure